Starlink 32408

operational
NORAD ID: 62054 Int'l Des: 2024-216 Owner: SPXS Country: US Constellation: starlink
LEOCIRCULAR

Starlink 32408について

説明を読み込み中...

リアルタイム位置

3D地球を読み込み中...

次回通過

高度履歴

Altitude vs Time

uPlot chart will show altitude changes over time

軌道要素

1 62054U 24216Y 26062.07365987 .00032077 00000-0 11697-2 0 9998
2 62054 43.0022 293.6992 0001526 274.5186 85.5492 15.27591480 72876
Epoch: Mar 3, 2026 • Age: 13 hours

現在のステータス

高度 485.8 km
速度 7.63 km/s
衛星直下点 37.95°N, 9.48°W
打ち上げ日 Nov 21, 2024
運用期間 1.2 years
タイプ internet

技術仕様

分類 Payload
質量 730.00 kg
乾燥質量 700.00 kg
総質量 730.00 kg
長さ 0.30 m
直径 4.10 m
スパン 29.00 m
形状 Box + pan
製造者 SPXS
バスタイプ Starlink V2M
フェーズステータス In Orbit
所有者/国 SPXS/US

大規模コンステレーション

Loading constellations...